| time (UTC) | temp F | wind direction | speed knots | gust knots | rain 1hr in | rain 24hr in | rain mn in | humidity % | barometer mb |
| 20260906232003 | 77 | 264 | 5.2 | 10.4 | 0.00 | 0.00 | 0.00 | 29 | 1021.3 |
| 20260906231503 | 77 | 257 | 6.1 | 12.2 | 0.00 | 0.00 | 0.00 | 29 | 1021.4 |
| 20260906231003 | 78 | 239 | 6.1 | 12.2 | 0.00 | 0.00 | 0.00 | 28 | 1021.4 |
| 20260906230503 | 78 | 241 | 6.1 | 11.3 | 0.00 | 0.00 | 0.00 | 28 | 1021.5 |
| 20260906230003 | 78 | 241 | 7.0 | 10.4 | 0.00 | 0.00 | 0.00 | 28 | 1021.5 |
| 20260906225503 | 78 | 247 | 5.2 | 9.6 | 0.00 | 0.00 | 0.00 | 28 | 1021.5 |
| 20260906225003 | 78 | 267 | 4.3 | 8.7 | 0.00 | 0.00 | 0.00 | 29 | 1021.5 |
| 20260906224503 | 78 | 263 | 6.1 | 9.6 | 0.00 | 0.00 | 0.00 | 28 | 1021.6 |
| 20260906224003 | 78 | 243 | 7.8 | 11.3 | 0.00 | 0.00 | 0.00 | 28 | 1021.6 |
| 20260906223503 | 78 | 218 | 7.0 | 11.3 | 0.00 | 0.00 | 0.00 | 28 | 1021.6 |
| 20260906223003 | 78 | 208 | 7.0 | 16.5 | 0.00 | 0.00 | 0.00 | 28 | 1021.6 |
| 20260906222503 | 78 | 209 | 8.7 | 16.5 | 0.00 | 0.00 | 0.00 | 28 | 1021.7 |
| 20260906222218 | 77 | 210 | 8.7 | 16.5 | 0.00 | 0.00 | 0.00 | 28 | 1021.7 |
| 20260906221503 | 78 | 219 | 5.2 | 13.9 | 0.00 | 0.00 | 0.00 | 28 | 1021.7 |
| 20260906221003 | 78 | 213 | 6.1 | 13.9 | 0.00 | 0.00 | 0.00 | 28 | 1021.7 |
| 20260906220503 | 78 | 227 | 7.8 | 15.6 | 0.00 | 0.00 | 0.00 | 28 | 1021.8 |
| 20260906220003 | 78 | 230 | 9.6 | 15.6 | 0.00 | 0.00 | 0.00 | 28 | 1021.9 |
| 20260906215503 | 78 | 230 | 8.7 | 14.8 | 0.00 | 0.00 | 0.00 | 28 | 1021.9 |
| 20260906215003 | 78 | 241 | 7.0 | 12.2 | 0.00 | 0.00 | 0.00 | 28 | 1021.9 |
| 20260906214503 | 78 | 223 | 6.1 | 12.2 | 0.00 | 0.00 | 0.00 | 28 | 1022.0 |
| 20260906214003 | 78 | 214 | 6.1 | 11.3 | 0.00 | 0.00 | 0.00 | 28 | 1022.0 |
| 20260906213503 | 78 | 219 | 8.7 | 14.8 | 0.00 | 0.00 | 0.00 | 28 | 1022.2 |
| 20260906213003 | 78 | 206 | 9.6 | 14.8 | 0.00 | 0.00 | 0.00 | 27 | 1022.1 |
| 20260906212503 | 78 | 206 | 6.1 | 13.9 | 0.00 | 0.00 | 0.00 | 27 | 1022.2 |
| 20260906212003 | 78 | 230 | 5.2 | 12.2 | 0.00 | 0.00 | 0.00 | 27 | 1022.2 |
| 20260906211503 | 79 | 236 | 3.5 | 10.4 | 0.00 | 0.00 | 0.00 | 27 | 1022.2 |
| 20260906211003 | 79 | 225 | 2.6 | 15.6 | 0.00 | 0.00 | 0.00 | 27 | 1022.2 |
| 20260906210503 | 78 | 235 | 6.1 | 15.6 | 0.00 | 0.00 | 0.00 | 27 | 1022.2 |
| 20260906210004 | 79 | 257 | 7.8 | 14.8 | 0.00 | 0.00 | 0.00 | 27 | 1022.3 |
| 20260906205503 | 78 | 275 | 7.8 | 14.8 | 0.00 | 0.00 | 0.00 | 27 | 1022.3 |
| 20260906205003 | 78 | 278 | 5.2 | 14.8 | 0.00 | 0.00 | 0.00 | 27 | 1022.4 |
| 20260906204503 | 78 | 270 | 5.2 | 11.3 | 0.00 | 0.00 | 0.00 | 27 | 1022.4 |
| 20260906204003 | 78 | 273 | 7.8 | 15.6 | 0.00 | 0.00 | 0.00 | 27 | 1022.4 |
| 20260906203503 | 78 | 266 | 9.6 | 15.6 | 0.00 | 0.00 | 0.00 | 27 | 1022.5 |
| 20260906203003 | 78 | 268 | 7.0 | 15.6 | 0.00 | 0.00 | 0.00 | 27 | 1022.4 |
| 20260906202503 | 78 | 253 | 6.1 | 12.2 | 0.00 | 0.00 | 0.00 | 27 | 1022.5 |
| 20260906202003 | 78 | 228 | 7.0 | 12.2 | 0.00 | 0.00 | 0.00 | 27 | 1022.6 |
| 20260906201503 | 78 | 250 | 7.0 | 12.2 | 0.00 | 0.00 | 0.00 | 27 | 1022.6 |
| 20260906201003 | 78 | 253 | 7.8 | 18.2 | 0.00 | 0.00 | 0.00 | 27 | 1022.6 |
| 20260906200718 | 78 | 255 | 9.6 | 18.2 | 0.00 | 0.00 | 0.00 | 27 | 1022.8 |
| 20260906200003 | 78 | 238 | 9.6 | 24.3 | 0.00 | 0.00 | 0.00 | 26 | 1022.6 |
| 20260906195503 | 78 | 199 | 7.8 | 15.6 | 0.00 | 0.00 | 0.00 | 26 | 1022.8 |
| 20260906195003 | 79 | 236 | 7.8 | 18.2 | 0.00 | 0.00 | 0.00 | 25 | 1022.8 |
| 20260906194503 | 78 | 266 | 7.0 | 18.2 | 0.00 | 0.00 | 0.00 | 27 | 1022.7 |
| 20260906194003 | 78 | 241 | 8.7 | 16.5 | 0.00 | 0.00 | 0.00 | 26 | 1022.8 |
| 20260906193503 | 78 | 239 | 9.6 | 19.1 | 0.00 | 0.00 | 0.00 | 26 | 1022.9 |
| 20260906193003 | 77 | 238 | 7.0 | 19.1 | 0.00 | 0.00 | 0.00 | 26 | 1022.9 |
| 20260906192503 | 78 | 158 | 5.2 | 18.2 | 0.00 | 0.00 | 0.00 | 26 | 1022.8 |
| 20260906192003 | 78 | 215 | 8.7 | 16.5 | 0.00 | 0.00 | 0.00 | 25 | 1023.1 |
| 20260906191503 | 78 | 220 | 8.7 | 16.5 | 0.00 | 0.00 | 0.00 | 25 | 1023.1 |
| 20260906191216 | 78 | 215 | 7.0 | 16.5 | 0.00 | 0.00 | 0.00 | 25 | 1023.1 |
| 20260906190503 | 78 | 211 | 7.8 | 13.0 | 0.00 | 0.00 | 0.00 | 25 | 1023.3 |
| 20260906190003 | 77 | 214 | 7.8 | 13.0 | 0.00 | 0.00 | 0.00 | 26 | 1023.3 |
| 20260906185718 | 77 | 210 | 7.0 | 13.0 | 0.00 | 0.00 | 0.00 | 26 | 1023.3 |
| 20260906185003 | 76 | 209 | 6.1 | 9.6 | 0.00 | 0.00 | 0.00 | 27 | 1023.4 |
| 20260906184503 | 76 | 221 | 5.2 | 10.4 | 0.00 | 0.00 | 0.00 | 27 | 1023.4 |
| 20260906184003 | 76 | 231 | 4.3 | 10.4 | 0.00 | 0.00 | 0.00 | 26 | 1023.5 |
| 20260906183503 | 76 | 224 | 5.2 | 12.2 | 0.00 | 0.00 | 0.00 | 27 | 1023.5 |
| 20260906183003 | 76 | 228 | 7.8 | 14.8 | 0.00 | 0.00 | 0.00 | 27 | 1023.6 |
| 20260906182503 | 76 | 240 | 7.8 | 14.8 | 0.00 | 0.00 | 0.00 | 27 | 1023.7 |
| 20260906182004 | 77 | 236 | 6.1 | 13.0 | 0.00 | 0.00 | 0.00 | 27 | 1023.7 |
| 20260906181503 | 76 | 231 | 4.3 | 9.6 | 0.00 | 0.00 | 0.00 | 28 | 1023.8 |
| 20260906181216 | 76 | 233 | 3.5 | 7.0 | 0.00 | 0.00 | 0.00 | 28 | 1023.8 |
| 20260906180503 | 76 | 218 | 4.3 | 13.0 | 0.00 | 0.00 | 0.00 | 27 | 1023.8 |
| 20260906180003 | 76 | 215 | 4.3 | 13.0 | 0.00 | 0.00 | 0.00 | 28 | 1024.0 |
| 20260906175717 | 76 | 209 | 4.3 | 13.0 | 0.00 | 0.00 | 0.00 | 29 | 1024.0 |
| 20260906175003 | 75 | 219 | 6.1 | 15.6 | 0.00 | 0.00 | 0.00 | 29 | 1024.2 |
| 20260906174503 | 76 | 217 | 6.1 | 10.4 | 0.00 | 0.00 | 0.00 | 28 | 1024.2 |
| 20260906174218 | 76 | 224 | 7.8 | 16.5 | 0.00 | 0.00 | 0.00 | 27 | 1024.3 |
| 20260906173717 | 76 | 226 | 6.1 | 16.5 | 0.00 | 0.00 | 0.00 | 27 | 1024.4 |
| 20260906173003 | 75 | 264 | 5.2 | 13.0 | 0.00 | 0.00 | 0.00 | 27 | 1024.4 |
| 20260906172503 | 75 | 228 | 5.2 | 10.4 | 0.00 | 0.00 | 0.00 | 27 | 1024.4 |
| 20260906172003 | 75 | 231 | 5.2 | 11.3 | 0.00 | 0.00 | 0.00 | 27 | 1024.4 |
| 20260906171503 | 75 | 243 | 7.0 | 11.3 | 0.00 | 0.00 | 0.00 | 27 | 1024.5 |
| 20260906171003 | 75 | 235 | 5.2 | 11.3 | 0.00 | 0.00 | 0.00 | 26 | 1024.6 |
| 20260906170503 | 74 | 248 | 4.3 | 9.6 | 0.00 | 0.00 | 0.00 | 26 | 1024.5 |
| 20260906170003 | 74 | 260 | 4.3 | 9.6 | 0.00 | 0.00 | 0.00 | 27 | 1024.6 |
| 20260906165503 | 74 | 247 | 4.3 | 10.4 | 0.00 | 0.00 | 0.00 | 26 | 1024.7 |
| 20260906165003 | 75 | 214 | 5.2 | 13.0 | 0.00 | 0.00 | 0.00 | 26 | 1024.7 |
| 20260906164719 | 74 | 198 | 4.3 | 13.0 | 0.00 | 0.00 | 0.00 | 26 | 1024.7 |
| 20260906164003 | 74 | 244 | 6.1 | 13.9 | 0.00 | 0.00 | 0.00 | 26 | 1024.7 |
| 20260906163503 | 74 | 243 | 5.2 | 13.9 | 0.00 | 0.00 | 0.00 | 25 | 1024.7 |
| 20260906163003 | 74 | 229 | 5.2 | 9.6 | 0.00 | 0.00 | 0.00 | 26 | 1024.6 |
| 20260906162503 | 73 | 223 | 5.2 | 9.6 | 0.00 | 0.00 | 0.00 | 25 | 1024.6 |
| 20260906162003 | 74 | 211 | 2.6 | 9.6 | 0.00 | 0.00 | 0.00 | 25 | 1024.6 |
| 20260906161503 | 73 | 246 | 3.5 | 8.7 | 0.00 | 0.00 | 0.00 | 25 | 1024.7 |
| 20260906161003 | 73 | 253 | 6.1 | 8.7 | 0.00 | 0.00 | 0.00 | 25 | 1024.7 |
| 20260906160503 | 73 | 249 | 5.2 | 8.7 | 0.00 | 0.00 | 0.00 | 25 | 1024.6 |
| 20260906160217 | 73 | 243 | 4.3 | 8.7 | 0.00 | 0.00 | 0.00 | 25 | 1024.6 |
| 20260906155503 | 73 | 213 | 0.9 | 4.3 | 0.00 | 0.00 | 0.00 | 25 | 1024.6 |
| 20260906155003 | 73 | 220 | 1.7 | 4.3 | 0.00 | 0.00 | 0.00 | 26 | 1024.6 |
| 20260906154503 | 72 | 213 | 1.7 | 4.3 | 0.00 | 0.00 | 0.00 | 25 | 1024.6 |
| 20260906154003 | 72 | 121 | 0.9 | 5.2 | 0.00 | 0.00 | 0.00 | 26 | 1024.6 |
| 20260906153503 | 71 | 84 | 1.7 | 5.2 | 0.00 | 0.00 | 0.00 | 28 | 1024.7 |
| 20260906153003 | 70 | 64 | 2.6 | 4.3 | 0.00 | 0.00 | 0.00 | 29 | 1024.7 |
| 20260906152503 | 69 | 54 | 3.5 | 7.0 | 0.00 | 0.00 | 0.00 | 31 | 1024.8 |
| 20260906152003 | 68 | 53 | 4.3 | 7.8 | 0.00 | 0.00 | 0.00 | 32 | 1024.8 |
| 20260906151504 | 67 | 53 | 4.3 | 7.8 | 0.00 | 0.00 | 0.00 | 33 | 1024.7 |
| 20260906151219 | 66 | 54 | 4.3 | 8.7 | 0.00 | 0.00 | 0.00 | 33 | 1024.8 |
| 20260906150503 | 66 | 52 | 6.1 | 10.4 | 0.00 | 0.00 | 0.00 | 33 | 1024.8 |
| 20260906150003 | 66 | 55 | 7.8 | 11.3 | 0.00 | 0.00 | 0.00 | 34 | 1024.8 |
| 20260906145503 | 66 | 56 | 8.7 | 11.3 | 0.00 | 0.00 | 0.00 | 34 | 1024.7 |
| 20260906145003 | 65 | 55 | 7.8 | 12.2 | 0.00 | 0.00 | 0.00 | 34 | 1024.7 |
| 20260906144503 | 64 | 59 | 8.7 | 12.2 | 0.00 | 0.00 | 0.00 | 36 | 1024.6 |
| 20260906144003 | 63 | 58 | 8.7 | 11.3 | 0.00 | 0.00 | 0.00 | 38 | 1024.6 |
| 20260906143718 | 63 | 56 | 8.7 | 11.3 | 0.00 | 0.00 | 0.00 | 37 | 1024.6 |
| 20260906143003 | 63 | 54 | 7.0 | 10.4 | 0.00 | 0.00 | 0.00 | 38 | 1024.7 |
| 20260906142503 | 62 | 54 | 7.0 | 11.3 | 0.00 | 0.00 | 0.00 | 38 | 1024.7 |
| 20260906142003 | 62 | 55 | 7.8 | 11.3 | 0.00 | 0.00 | 0.00 | 38 | 1024.7 |
| 20260906141503 | 62 | 56 | 8.7 | 11.3 | 0.00 | 0.00 | 0.00 | 38 | 1024.6 |
| 20260906141003 | 62 | 53 | 7.0 | 11.3 | 0.00 | 0.00 | 0.00 | 38 | 1024.7 |
| 20260906140503 | 61 | 48 | 6.1 | 11.3 | 0.00 | 0.00 | 0.00 | 39 | 1024.7 |
| 20260906140003 | 61 | 45 | 5.2 | 11.3 | 0.00 | 0.00 | 0.00 | 39 | 1024.6 |
| 20260906135718 | 60 | 43 | 4.3 | 8.7 | 0.00 | 0.00 | 0.00 | 40 | 1024.6 |
| 20260906135003 | 59 | 40 | 4.3 | 8.7 | 0.00 | 0.00 | 0.00 | 42 | 1024.6 |
| 20260906134503 | 58 | 40 | 4.3 | 9.6 | 0.00 | 0.00 | 0.00 | 43 | 1024.6 |
| 20260906134003 | 58 | 39 | 4.3 | 9.6 | 0.00 | 0.00 | 0.00 | 44 | 1024.5 |
| 20260906133503 | 57 | 38 | 4.3 | 7.8 | 0.00 | 0.00 | 0.00 | 45 | 1024.6 |
| 20260906133003 | 56 | 34 | 5.2 | 7.8 | 0.00 | 0.00 | 0.00 | 46 | 1024.5 |
| 20260906132504 | 55 | 35 | 5.2 | 7.8 | 0.00 | 0.00 | 0.00 | 48 | 1024.4 |
| 20260906132003 | 54 | 39 | 5.2 | 7.8 | 0.00 | 0.00 | 0.00 | 49 | 1024.2 |
| 20260906131503 | 54 | 41 | 5.2 | 7.0 | 0.00 | 0.00 | 0.00 | 50 | 1024.2 |
| 20260906131003 | 53 | 42 | 5.2 | 7.8 | 0.00 | 0.00 | 0.00 | 51 | 1024.1 |
| 20260906130717 | 52 | 42 | 5.2 | 7.8 | 0.00 | 0.00 | 0.00 | 51 | 1024.1 |
| 20260906130003 | 51 | 41 | 5.2 | 7.8 | 0.00 | 0.00 | 0.00 | 53 | 1023.9 |
| 20260906125717 | 51 | 40 | 6.1 | 7.8 | 0.00 | 0.00 | 0.00 | 53 | 1023.9 |
| 20260906125003 | 52 | 40 | 5.2 | 7.8 | 0.00 | 0.00 | 0.00 | 52 | 1023.9 |
| 20260906124503 | 52 | 42 | 5.2 | 7.8 | 0.00 | 0.00 | 0.00 | 52 | 1023.9 |
| 20260906124003 | 53 | 41 | 5.2 | 7.8 | 0.00 | 0.00 | 0.00 | 51 | 1023.9 |
| 20260906123503 | 53 | 37 | 5.2 | 7.8 | 0.00 | 0.00 | 0.00 | 50 | 1023.8 |
| 20260906123003 | 53 | 35 | 5.2 | 7.8 | 0.00 | 0.00 | 0.00 | 50 | 1023.7 |
| 20260906122503 | 53 | 37 | 5.2 | 7.8 | 0.00 | 0.00 | 0.00 | 51 | 1023.7 |
| 20260906122003 | 53 | 42 | 5.2 | 7.8 | 0.00 | 0.00 | 0.00 | 50 | 1023.7 |
| 20260906121717 | 53 | 44 | 5.2 | 7.8 | 0.00 | 0.00 | 0.00 | 50 | 1023.8 |
| 20260906121003 | 53 | 42 | 4.3 | 7.8 | 0.00 | 0.00 | 0.00 | 51 | 1023.7 |
| 20260906120717 | 53 | 40 | 4.3 | 7.8 | 0.00 | 0.00 | 0.00 | 51 | 1023.8 |
| 20260906120003 | 53 | 39 | 5.2 | 8.7 | 0.00 | 0.00 | 0.00 | 50 | 1023.8 |
| 20260906115717 | 53 | 40 | 4.3 | 8.7 | 0.00 | 0.00 | 0.00 | 51 | 1023.7 |
| 20260906115003 | 53 | 39 | 4.3 | 7.8 | 0.00 | 0.00 | 0.00 | 51 | 1023.7 |
| 20260906114503 | 53 | 41 | 5.2 | 7.8 | 0.00 | 0.00 | 0.00 | 51 | 1023.8 |
| 20260906114003 | 53 | 42 | 5.2 | 7.8 | 0.00 | 0.00 | 0.00 | 51 | 1023.8 |
| 20260906113717 | 53 | 43 | 5.2 | 7.8 | 0.00 | 0.00 | 0.00 | 51 | 1023.8 |
| 20260906113003 | 53 | 39 | 5.2 | 7.8 | 0.00 | 0.00 | 0.00 | 52 | 1023.9 |
| 20260906112503 | 53 | 34 | 5.2 | 7.8 | 0.00 | 0.00 | 0.00 | 52 | 1023.8 |
| 20260906112003 | 53 | 34 | 5.2 | 7.8 | 0.00 | 0.00 | 0.00 | 52 | 1023.7 |
| 20260906111503 | 52 | 37 | 5.2 | 7.8 | 0.00 | 0.00 | 0.00 | 53 | 1023.6 |
| 20260906111003 | 52 | 41 | 5.2 | 7.8 | 0.00 | 0.00 | 0.00 | 54 | 1023.6 |
| 20260906110503 | 52 | 39 | 5.2 | 7.8 | 0.00 | 0.00 | 0.00 | 53 | 1023.5 |
| 20260906110003 | 52 | 38 | 5.2 | 7.8 | 0.00 | 0.00 | 0.00 | 52 | 1023.5 |
| 20260906105503 | 52 | 38 | 5.2 | 7.8 | 0.00 | 0.00 | 0.00 | 52 | 1023.5 |
| 20260906105003 | 52 | 35 | 5.2 | 7.8 | 0.00 | 0.00 | 0.00 | 52 | 1023.6 |
| 20260906104503 | 52 | 35 | 5.2 | 7.8 | 0.00 | 0.00 | 0.00 | 52 | 1023.5 |
| 20260906104217 | 52 | 36 | 5.2 | 7.8 | 0.00 | 0.00 | 0.00 | 52 | 1023.5 |
| 20260906103503 | 52 | 40 | 5.2 | 7.0 | 0.00 | 0.00 | 0.00 | 52 | 1023.5 |
| 20260906103004 | 52 | 38 | 5.2 | 7.8 | 0.00 | 0.00 | 0.00 | 52 | 1023.5 |
| 20260906102503 | 52 | 38 | 5.2 | 7.8 | 0.00 | 0.00 | 0.00 | 51 | 1023.4 |
| 20260906102003 | 52 | 38 | 5.2 | 7.8 | 0.00 | 0.00 | 0.00 | 51 | 1023.4 |
| 20260906101503 | 52 | 40 | 5.2 | 7.8 | 0.00 | 0.00 | 0.00 | 51 | 1023.4 |
| 20260906101004 | 52 | 39 | 5.2 | 8.7 | 0.00 | 0.00 | 0.00 | 51 | 1023.3 |
| 20260906100503 | 53 | 37 | 6.1 | 8.7 | 0.00 | 0.00 | 0.00 | 52 | 1023.3 |
| 20260906100003 | 53 | 37 | 5.2 | 8.7 | 0.00 | 0.00 | 0.00 | 52 | 1023.3 |
| 20260906095503 | 53 | 38 | 5.2 | 7.0 | 0.00 | 0.00 | 0.00 | 52 | 1023.4 |
| 20260906095217 | 53 | 37 | 4.3 | 7.8 | 0.00 | 0.00 | 0.00 | 51 | 1023.4 |
| 20260906094503 | 54 | 36 | 5.2 | 9.6 | 0.00 | 0.00 | 0.00 | 51 | 1023.3 |
| 20260906094003 | 53 | 34 | 5.2 | 9.6 | 0.00 | 0.00 | 0.00 | 51 | 1023.3 |
| 20260906093503 | 53 | 30 | 6.1 | 9.6 | 0.00 | 0.00 | 0.00 | 51 | 1023.4 |
| 20260906093003 | 53 | 33 | 6.1 | 9.6 | 0.00 | 0.00 | 0.00 | 52 | 1023.3 |
| 20260906092503 | 53 | 38 | 5.2 | 7.8 | 0.00 | 0.00 | 0.00 | 52 | 1023.3 |
| 20260906092003 | 53 | 41 | 5.2 | 7.8 | 0.00 | 0.00 | 0.00 | 51 | 1023.4 |
| 20260906091503 | 53 | 38 | 5.2 | 7.0 | 0.00 | 0.00 | 0.00 | 51 | 1023.5 |
| 20260906091003 | 53 | 35 | 5.2 | 7.0 | 0.00 | 0.00 | 0.00 | 51 | 1023.4 |
| 20260906090718 | 53 | 37 | 5.2 | 7.0 | 0.00 | 0.00 | 0.00 | 50 | 1023.3 |
| 20260906090217 | 54 | 40 | 5.2 | 7.8 | 0.00 | 0.00 | 0.00 | 50 | 1023.3 |
| 20260906085503 | 54 | 42 | 5.2 | 8.7 | 0.00 | 0.00 | 0.00 | 48 | 1023.3 |
| 20260906085003 | 55 | 40 | 6.1 | 8.7 | 0.00 | 0.00 | 0.00 | 47 | 1023.4 |
| 20260906084503 | 55 | 36 | 6.1 | 8.7 | 0.00 | 0.00 | 0.00 | 47 | 1023.4 |
| 20260906084003 | 54 | 33 | 6.1 | 7.8 | 0.00 | 0.00 | 0.00 | 48 | 1023.6 |
| 20260906083503 | 54 | 35 | 6.1 | 7.8 | 0.00 | 0.00 | 0.00 | 49 | 1023.6 |
| 20260906083003 | 52 | 37 | 5.2 | 7.8 | 0.00 | 0.00 | 0.00 | 49 | 1023.7 |
| 20260906082503 | 52 | 37 | 5.2 | 7.8 | 0.00 | 0.00 | 0.00 | 48 | 1023.6 |
| 20260906082003 | 53 | 35 | 5.2 | 7.8 | 0.00 | 0.00 | 0.00 | 46 | 1023.6 |
| 20260906081503 | 54 | 33 | 5.2 | 7.8 | 0.00 | 0.00 | 0.00 | 46 | 1023.6 |
| 20260906081003 | 54 | 32 | 6.1 | 7.8 | 0.00 | 0.00 | 0.00 | 46 | 1023.7 |
| 20260906080718 | 54 | 32 | 6.1 | 7.8 | 0.00 | 0.00 | 0.00 | 46 | 1023.7 |
| 20260906080003 | 53 | 37 | 5.2 | 7.8 | 0.00 | 0.00 | 0.00 | 48 | 1023.7 |
| 20260906075503 | 52 | 36 | 5.2 | 7.8 | 0.00 | 0.00 | 0.00 | 49 | 1023.7 |
| 20260906075216 | 52 | 34 | 5.2 | 7.8 | 0.00 | 0.00 | 0.00 | 49 | 1023.7 |
| 20260906074503 | 51 | 36 | 5.2 | 7.8 | 0.00 | 0.00 | 0.00 | 51 | 1023.8 |
| 20260906074003 | 52 | 32 | 4.3 | 7.8 | 0.00 | 0.00 | 0.00 | 49 | 1023.8 |
| 20260906073503 | 53 | 28 | 4.3 | 7.0 | 0.00 | 0.00 | 0.00 | 48 | 1023.7 |
| 20260906073003 | 53 | 31 | 4.3 | 7.0 | 0.00 | 0.00 | 0.00 | 48 | 1023.7 |
| 20260906072503 | 53 | 33 | 3.5 | 5.2 | 0.00 | 0.00 | 0.00 | 48 | 1023.9 |
| 20260906072003 | 53 | 32 | 4.3 | 5.2 | 0.00 | 0.00 | 0.00 | 48 | 1023.9 |
| 20260906071503 | 53 | 32 | 4.3 | 5.2 | 0.00 | 0.00 | 0.00 | 48 | 1023.8 |
| 20260906071218 | 53 | 33 | 4.3 | 5.2 | 0.00 | 0.00 | 0.00 | 48 | 1023.9 |
| 20260906070503 | 54 | 35 | 4.3 | 5.2 | 0.00 | 0.00 | 0.00 | 48 | 1023.8 |
| 20260906070003 | 54 | 35 | 4.3 | 7.0 | 0.00 | 0.00 | 0.00 | 48 | 1023.8 |
| 20260906065717 | 54 | 34 | 4.3 | 7.0 | 0.00 | 0.00 | 0.00 | 48 | 1023.8 |
| 20260906065003 | 56 | 34 | 4.3 | 7.8 | 0.00 | 0.00 | 0.00 | 47 | 1023.7 |
| 20260906064503 | 55 | 33 | 5.2 | 7.8 | 0.00 | 0.00 | 0.00 | 47 | 1023.8 |
| 20260906064218 | 55 | 36 | 4.3 | 7.0 | 0.00 | 0.00 | 0.00 | 47 | 1023.8 |
| 20260906063503 | 54 | 37 | 4.3 | 7.0 | 0.00 | 0.00 | 0.00 | 48 | 1023.8 |
| 20260906063003 | 53 | 38 | 4.3 | 5.2 | 0.00 | 0.00 | 0.00 | 50 | 1023.8 |
| 20260906062503 | 53 | 36 | 4.3 | 5.2 | 0.00 | 0.00 | 0.00 | 49 | 1023.7 |
| 20260906062003 | 54 | 27 | 3.5 | 5.2 | 0.00 | 0.00 | 0.00 | 46 | 1023.8 |
| 20260906061503 | 56 | 12 | 2.6 | 4.3 | 0.00 | 0.00 | 0.00 | 43 | 1023.7 |
| 20260906061003 | 59 | 360 | 2.6 | 4.3 | 0.00 | 0.00 | 0.00 | 41 | 1023.7 |
| 20260906060503 | 60 | 360 | 4.3 | 7.0 | 0.00 | 0.00 | 0.00 | 40 | 1023.7 |
| 20260906060003 | 61 | 360 | 5.2 | 7.0 | 0.00 | 0.00 | 0.00 | 39 | 1023.7 |
| 20260906055503 | 61 | 360 | 5.2 | 7.8 | 0.00 | 0.00 | 0.00 | 39 | 1023.7 |
| 20260906055003 | 61 | 358 | 5.2 | 7.8 | 0.00 | 0.00 | 0.00 | 39 | 1023.7 |
| 20260906054503 | 61 | 354 | 4.3 | 7.0 | 0.00 | 0.00 | 0.00 | 39 | 1023.8 |
| 20260906054217 | 61 | 355 | 4.3 | 7.0 | 0.00 | 0.00 | 0.00 | 39 | 1023.8 |
| 20260906053503 | 62 | 355 | 6.1 | 7.8 | 0.00 | 0.00 | 0.00 | 39 | 1023.8 |
| 20260906053003 | 62 | 356 | 6.1 | 7.8 | 0.00 | 0.00 | 0.00 | 39 | 1023.8 |
| 20260906052503 | 61 | 356 | 6.1 | 7.8 | 0.00 | 0.00 | 0.00 | 39 | 1023.8 |
| 20260906052003 | 61 | 353 | 6.1 | 7.8 | 0.00 | 0.00 | 0.00 | 39 | 1023.8 |
| 20260906051503 | 61 | 353 | 6.1 | 7.8 | 0.00 | 0.00 | 0.00 | 39 | 1023.9 |
| 20260906051003 | 61 | 356 | 5.2 | 7.8 | 0.00 | 0.00 | 0.00 | 39 | 1023.8 |
| 20260906050503 | 62 | 356 | 5.2 | 7.8 | 0.00 | 0.00 | 0.00 | 39 | 1023.8 |
| 20260906050217 | 62 | 355 | 5.2 | 8.7 | 0.00 | 0.00 | 0.00 | 38 | 1023.8 |
| 20260906045503 | 63 | 351 | 7.0 | 9.6 | 0.00 | 0.00 | 0.00 | 37 | 1023.8 |
| 20260906045003 | 62 | 349 | 6.1 | 7.8 | 0.00 | 0.00 | 0.00 | 37 | 1023.7 |
| 20260906044503 | 62 | 346 | 5.2 | 7.0 | 0.00 | 0.00 | 0.00 | 38 | 1023.8 |
| 20260906044217 | 62 | 343 | 4.3 | 7.0 | 0.00 | 0.00 | 0.00 | 38 | 1023.8 |
| 20260906043503 | 62 | 335 | 2.6 | 4.3 | 0.00 | 0.00 | 0.00 | 37 | 1023.9 |
| 20260906043217 | 63 | 333 | 1.7 | 2.6 | 0.00 | 0.00 | 0.00 | 37 | 1023.9 |
| 20260906042503 | 63 | 333 | 2.6 | 3.5 | 0.00 | 0.00 | 0.00 | 37 | 1023.8 |
| 20260906042003 | 63 | 333 | 2.6 | 3.5 | 0.00 | 0.00 | 0.00 | 37 | 1023.9 |
| 20260906041503 | 63 | 333 | 2.6 | 3.5 | 0.00 | 0.00 | 0.00 | 37 | 1023.8 |
| 20260906041217 | 63 | 336 | 3.5 | 5.2 | 0.00 | 0.00 | 0.00 | 37 | 1023.8 |
| 20260906040503 | 63 | 341 | 3.5 | 5.2 | 0.00 | 0.00 | 0.00 | 37 | 1023.8 |
| 20260906040003 | 63 | 340 | 3.5 | 5.2 | 0.00 | 0.00 | 0.00 | 36 | 1023.7 |
| 20260906035503 | 64 | 338 | 3.5 | 5.2 | 0.00 | 0.00 | 0.00 | 36 | 1023.7 |
| 20260906035003 | 64 | 337 | 3.5 | 7.0 | 0.00 | 0.00 | 0.00 | 36 | 1023.7 |
| 20260906034503 | 64 | 334 | 3.5 | 7.0 | 0.00 | 0.00 | 0.00 | 35 | 1023.7 |
| 20260906034003 | 64 | 327 | 3.5 | 4.3 | 0.00 | 0.00 | 0.00 | 35 | 1023.7 |
| 20260906033503 | 64 | 324 | 3.5 | 4.3 | 0.00 | 0.00 | 0.00 | 35 | 1023.6 |
| 20260906033003 | 64 | 321 | 3.5 | 4.3 | 0.00 | 0.00 | 0.00 | 36 | 1023.6 |
| 20260906032503 | 64 | 310 | 2.6 | 4.3 | 0.00 | 0.00 | 0.00 | 36 | 1023.7 |
| 20260906032003 | 64 | 303 | 2.6 | 3.5 | 0.00 | 0.00 | 0.00 | 36 | 1023.6 |
| 20260906031503 | 65 | 304 | 2.6 | 4.3 | 0.00 | 0.00 | 0.00 | 36 | 1023.6 |
| 20260906031003 | 65 | 307 | 3.5 | 4.3 | 0.00 | 0.00 | 0.00 | 36 | 1023.5 |
| 20260906030503 | 65 | 311 | 3.5 | 5.2 | 0.00 | 0.00 | 0.00 | 35 | 1023.3 |
| 20260906030217 | 66 | 316 | 3.5 | 5.2 | 0.00 | 0.00 | 0.00 | 36 | 1023.3 |
| 20260906025717 | 66 | 322 | 3.5 | 5.2 | 0.00 | 0.00 | 0.00 | 36 | 1023.2 |
| 20260906025004 | 66 | 318 | 2.6 | 4.3 | 0.00 | 0.00 | 0.00 | 36 | 1023.1 |
| 20260906024503 | 66 | 310 | 2.6 | 3.5 | 0.00 | 0.00 | 0.00 | 36 | 1023.1 |
| 20260906024003 | 66 | 299 | 2.6 | 3.5 | 0.00 | 0.00 | 0.00 | 36 | 1023.1 |
| 20260906023503 | 66 | 292 | 3.5 | 6.1 | 0.00 | 0.00 | 0.00 | 36 | 1023.1 |
| 20260906023219 | 67 | 290 | 4.3 | 6.1 | 0.00 | 0.00 | 0.00 | 35 | 1023.0 |
| 20260906022503 | 67 | 284 | 4.3 | 6.1 | 0.00 | 0.00 | 0.00 | 35 | 1022.8 |
| 20260906022216 | 68 | 280 | 4.3 | 6.1 | 0.00 | 0.00 | 0.00 | 34 | 1022.9 |
| 20260906021717 | 68 | 269 | 4.3 | 6.1 | 0.00 | 0.00 | 0.00 | 34 | 1022.8 |
| 20260906021003 | 69 | 265 | 5.2 | 8.7 | 0.00 | 0.00 | 0.00 | 33 | 1022.7 |
| 20260906020503 | 69 | 266 | 6.1 | 9.6 | 0.00 | 0.00 | 0.00 | 32 | 1022.6 |
| 20260906020003 | 70 | 266 | 7.0 | 9.6 | 0.00 | 0.00 | 0.00 | 32 | 1022.6 |
| 20260906015503 | 70 | 269 | 6.1 | 9.6 | 0.00 | 0.00 | 0.00 | 31 | 1022.6 |
| 20260906015004 | 71 | 268 | 6.1 | 8.7 | 0.00 | 0.00 | 0.00 | 30 | 1022.5 |
| 20260906014503 | 71 | 262 | 7.0 | 10.4 | 0.00 | 0.00 | 0.00 | 30 | 1022.5 |
| 20260906014003 | 72 | 260 | 8.7 | 12.2 | 0.00 | 0.00 | 0.00 | 29 | 1022.5 |
| 20260906013503 | 72 | 257 | 8.7 | 12.2 | 0.00 | 0.00 | 0.00 | 29 | 1022.5 |
| 20260906013003 | 73 | 251 | 7.8 | 12.2 | 0.00 | 0.00 | 0.00 | 29 | 1022.5 |
| 20260906012503 | 73 | 253 | 8.7 | 12.2 | 0.00 | 0.00 | 0.00 | 28 | 1022.5 |
| 20260906012003 | 74 | 256 | 8.7 | 12.2 | 0.00 | 0.00 | 0.00 | 27 | 1022.5 |
| 20260906011717 | 74 | 257 | 8.7 | 12.2 | 0.00 | 0.00 | 0.00 | 27 | 1022.5 |
| 20260906011003 | 74 | 247 | 8.7 | 12.2 | 0.00 | 0.00 | 0.00 | 26 | 1022.5 |
| 20260906010503 | 74 | 242 | 8.7 | 12.2 | 0.00 | 0.00 | 0.00 | 26 | 1022.5 |
| 20260906010003 | 74 | 242 | 9.6 | 13.9 | 0.00 | 0.00 | 0.00 | 26 | 1022.4 |
| 20260906005503 | 74 | 239 | 9.6 | 15.6 | 0.00 | 0.00 | 0.00 | 26 | 1022.5 |
| 20260906005003 | 75 | 240 | 9.6 | 15.6 | 0.00 | 0.00 | 0.00 | 26 | 1022.5 |
| 20260906004503 | 76 | 244 | 9.6 | 13.0 | 0.00 | 0.00 | 0.00 | 26 | 1022.6 |
| 20260906004003 | 76 | 251 | 8.7 | 12.2 | 0.00 | 0.00 | 0.00 | 26 | 1022.5 |
| 20260906003503 | 76 | 251 | 8.7 | 12.2 | 0.00 | 0.00 | 0.00 | 26 | 1022.5 |
| 20260906003003 | 75 | 241 | 8.7 | 13.0 | 0.00 | 0.00 | 0.00 | 26 | 1022.5 |
| 20260906002503 | 75 | 242 | 9.6 | 13.0 | 0.00 | 0.00 | 0.00 | 25 | 1022.4 |
| 20260906002003 | 75 | 244 | 8.7 | 12.2 | 0.00 | 0.00 | 0.00 | 25 | 1022.5 |
| 20260906001503 | 75 | 242 | 7.8 | 13.0 | 0.00 | 0.00 | 0.00 | 25 | 1022.5 |
| 20260906001003 | 76 | 239 | 7.8 | 13.0 | 0.00 | 0.00 | 0.00 | 25 | 1022.5 |
| 20260906000503 | 76 | 244 | 7.8 | 13.9 | 0.00 | 0.00 | 0.00 | 24 | 1022.5 |
| 20260906000003 | 76 | 254 | 10.4 | 16.5 | 0.00 | 0.00 | 0.00 | 24 | 1022.5 |
| 20260905235503 | 77 | 259 | 7.8 | 16.5 | 0.00 | 0.00 | 0.00 | 24 | 1022.4 |
| 20260905235003 | 78 | 251 | 5.2 | 12.2 | 0.00 | 0.00 | 0.00 | 24 | 1022.3 |
| 20260905234503 | 77 | 255 | 6.1 | 13.9 | 0.00 | 0.00 | 0.00 | 25 | 1022.4 |
| 20260905234003 | 77 | 262 | 7.8 | 13.9 | 0.00 | 0.00 | 0.00 | 26 | 1022.5 |
| 20260905233503 | 77 | 229 | 8.7 | 16.5 | 0.00 | 0.00 | 0.00 | 25 | 1022.4 |
| 20260905233003 | 77 | 212 | 9.6 | 16.5 | 0.00 | 0.00 | 0.00 | 26 | 1022.5 |
| 20260905232503 | 77 | 223 | 9.6 | 14.8 | 0.00 | 0.00 | 0.00 | 25 | 1022.5 |